Terminal Aerodrome Forecast
Issued by NWS

Home | Current Version | Previous Version | Graphics & Text | Print | Product List | Glossary On
Versions: 1 2 3 4 5 6 7 8 9 10 11 12 13 14
000
FTUS43 KBIS 020527
TAFMOT
TAF
KMOT 020527Z 0206/0306 22007KT P6SM BKN090
     FM020800 24007KT P6SM -SHRA OVC080
     FM021200 25006KT P6SM BKN080
     FM021500 35010KT P6SM FEW050
     FM030200 25004KT P6SM SKC=

USA.gov is the U.S. government's official web portal to all federal, state and local government web resources and services.